Showing default

ZHUHAI-1 01, 42761

Orbit data source: Space-Track

ZHUHAI-1 01, 42761 is a payload satellite owned by Zhuhai Orbita (CN) in LEO that was launched on Thu, 15 Jun 2017 UTC via a CHANG ZHENG 4B launch vehicle from the Jiuquan Satellite Launch Center, China (JSC). Payload-class satellites include a variety of spacecraft equipped with specific instruments for various scientific and technological missions. These include communications satellites like Starlink; space stations such as the ISS; scientific satellites like the Hubble; Earth observation satellites from companies like Planet Labs, Umbra, and HawkEye 360; GPS; miniature CubeSats for education and research; and military/defense satellites.

Not visible in the next 10 days
Identifier
42761, 2017-034D
Orbit
LEO
Country
Flag of CNCN / PRC
Related business
Manufacturer
Zhuhai Orbita
Mission
Operational Commercial Imaging
Bus & Motor
OVS-1, Unknown motor
Mass
50 kg wet, 50 kg dry
Launch date (UTC)
2017-06-15 (8 years ago)
Launch vehicle
CHANG ZHENG 4B
Launch site
Jiuquan Satellite Launch Center, China (JSC)
Object type
Payload
Rocket body
Debris
Shape & HBR
Box, 0.5 m
Radar Cross Section
0.375 m², Medium (>0.1 m² and < 1m²)

Expand to show TLE details & history
Last TLE update: 23 hours ago

TLE from 23 hours ago
0 ZHUHAI-1 01
1 42761U 17034D   25260.93199135  .00275271  35246-4  93828-3 0  9991
2 42761  43.0033  71.9739 0024657 291.1777  68.6463 15.88516116458427
Epoch: 2025-09-17T22:22Z
TLE epoch observation values (Epoch: 2025-09-17T22:22:04.052Z)
Latitude
-0.00002°
Longitude
99.35614°
Altitude
300.247 km
Speed
7.733 km/s
True Right ascension
04h 47m 53s
True Declination
0° 00' 00"
Sunlit
Object was in daylight at epoch
Visualization orbit readout
Latitude
Unknown
Longitude
Unknown
Altitude
Unknown
Speed
Unknown
Apparent Right ascension
Unknown
Apparent Declination
Unknown
Sunlit
N/A
Visualization observer readout
Local Sidereal Time
14:27:24
Azimuth
Unknown
Elevation
Unknown
Doppler factor
Unknown
Orbital elements
Apogee altitude
324.925 km
Perigee altitude
291.951 km
Semi-major axis
6,686.575 km
Eccentricity
0.00247
Inclination
43.0033°
RAAN
71.9739°
Arg. of periapsis
291.1777°
True anomaly
68.90975°
Mean anomaly
68.6463°
Eccentric anomaly
68.77799°
Mean motion
3.96952 °/min
Orbital period
90.69 mins
BSTAR
0.00093828
Loading maneuver chart data...
Computing Atmospheric mass density...
Loading historical data...
Loading historical data...
Loading historical data...
Loading historical data...
Loading historical data...
Loading historical data...
Loading historical data...

Documentation

Showing up to 5 results
|